IRIDIUM 173

Last updated on Sun Jun 21 2026 00:03:14 GMT+0000 (Coordinated Universal Time)

1 43925U 19002D 26170.97744161 .00000181 00000+0 57398-4 0 9995 2 43925 86.3969 352.3968 0002179 87.6004 272.5441 14.34217706389354
UTC large
Height (km)
Speed (km/s)
/
Latitude / Longitude
Inclination (degrees)
Orbital Period (minutes)
Azimuth
Elevation
Range (km)
Doppler Factor

Next 0 passes for location: London (51.5072 / 0.1276)

No passes found over London.
IRIDIUM 173